Lid_Strength_Index
3 3 3 4 4 4 3 3 4 7 6 6 6 7 7 8 7 7 7 6 5 5 5 5 5 3 2 1 1 1 1 0 -0 -1 -1 -1 -1 -1
6 6 6 6 6 6 6 6 6 5 6 5 9 9 9 9 10 9 8 8 7 8 8 8 7 5 4 3 3 2 2 1 1 0 -1 -1 -1 -1
7 7 7 7 8 8 8 8 8 8 7 8 8 9 10 12 11 10 10 9 10 9 9 9 6 6 6 6 5 4 4 3 3 2 1 1 0 0
9 8 8 9 9 9 9 9 9 9 9 10 9 10 11 13 11 12 13 12 12 11 10 7 8 9 9 8 8 8 8 7 5 5 5 4 3 2
9 10 10 10 10 10 10 11 10 10 10 11 11 11 10 13 14 13 14 13 13 12 9 11 10 10 10 9 9 9 10 10 8 8 7 6 5 5
10 9 10 10 10 11 11 12 12 12 13 12 13 14 14 14 14 15 15 14 14 12 12 12 12 11 11 11 11 11 10 10 9 9 8 7 6 6
10 10 9 9 9 9 11 12 13 13 13 14 15 15 15 15 16 15 16 15 14 13 14 14 14 13 13 12 12 11 11 10 10 9 9 8 8 7
12 12 11 10 10 10 10 11 11 13 15 16 15 15 17 16 16 16 17 18 19 15 17 17 15 16 15 14 12 12 12 11 11 10 9 10 9 8
15 15 13 12 11 13 11 11 11 11 12 16 17 17 17 16 17 18 17 18 19 16 18 19 17 18 16 15 13 13 12 11 11 11 11 10 9 9
13 14 14 13 12 13 14 14 14 14 14 14 16 16 16 16 16 16 17 18 18 18 18 20 17 18 17 17 14 13 12 10 10 11 11 10 10 9
13 13 11 12 11 11 14 14 15 15 13 12 13 13 13 13 13 16 19 20 20 19 18 18 17 18 17 16 15 12 12 12 12 11 11 10 10 10
14 14 10 10 9 10 13 14 15 15 15 15 15 15 15 15 14 16 18 19 19 20 17 19 18 18 18 17 16 15 15 13 12 12 11 11 11 12
14 14 14 9 9 9 10 13 13 13 14 15 15 16 16 16 16 16 16 18 19 19 17 17 18 18 18 17 16 15 15 15 15 14 13 12 11 12
13 13 13 9 9 9 11 10 11 12 14 14 15 15 16 16 16 16 16 17 17 17 16 16 18 18 19 19 19 17 16 15 15 15 15 13 12 12
12 10 10 10 10 11 11 11 12 14 15 15 15 16 17 17 16 17 17 17 16 16 15 16 17 18 18 18 18 18 17 16 16 16 16 15 14 14
10 11 11 11 11 12 12 13 13 14 15 16 16 16 16 18 16 16 17 17 17 17 16 16 17 18 18 17 17 18 17 18 16 15 14 14 14 14
11 13 14 14 14 14 14 14 14 15 16 16 17 16 16 16 16 16 17 17 18 18 18 17 18 17 17 17 18 17 17 16 15 14 15 15 14 13
12 14 14 14 14 15 15 15 15 15 15 16 17 17 17 18 18 17 17 17 18 18 17 17 18 18 16 18 14 17 17 15 14 13 13 14 14 12
14 14 14 15 15 15 15 16 16 15 15 17 19 18 19 21 17 19 18 16 17 17 17 17 18 18 19 20 16 12 15 13 12 12 12 12 12 11
14 15 15 14 14 14 15 15 15 15 17 17 18 20 22 22 19 19 16 17 17 17 16 16 17 16 16 16 14 12 9 11 11 10 10 9 8 7
14 14 13 14 14 15 15 17 17 17 15 19 22 22 21 22 18 16 16 14 13 15 16 16 14 10 11 12 13 12 12 9 8 9 9 10 11 13
14 14 14 14 14 16 16 16 16 16 16 17 18 18 18 17 16 15 15 15 15 15 15 15 13 12 13 13 13 13 13 12 10 8 7 8 10 13
14 14 14 14 15 16 17 17 16 16 15 16 15 16 15 16 14 14 14 15 15 15 15 14 13 12 12 12 11 12 16 15 13 12 13 8 7 8